CAPE
1446 777 660 582 582 526 545 713 983 1157 1199 1118 870 893 987 994 962 892 1149 1445 1522 1654 1520 1319 1087 1086 1147 1091 891 704 635 594 528 433 397 629 497 109 3 0 57 81 53
1620 916 783 698 613 581 616 755 1063 1254 1347 1232 1020 1026 1081 1071 1061 1052 1346 1494 1423 1684 1538 1421 1254 1364 1230 1013 719 587 579 558 282 43 215 385 282 177 193 169 152 96 99
1689 1042 1002 825 678 663 702 818 1151 1331 1412 1341 1181 1166 1192 1171 1194 1205 1480 1461 1552 1552 1518 1269 1434 1309 1107 859 626 506 421 205 1 3 401 306 239 291 181 84 89 79 120
2035 1261 1231 886 771 740 753 823 1203 1480 1475 1484 1368 1269 1300 1267 1276 1336 1533 1549 1505 1435 1494 1407 1591 1214 903 771 628 423 260 45 2 0 301 328 205 131 220 97 100 100 77
2175 1721 1651 966 850 780 794 876 1126 1550 1547 1539 1472 1367 1395 1363 1374 1402 1500 1657 1573 1590 1605 1599 1566 982 647 614 584 327 96 6 13 98 183 271 248 192 170 213 130 87 72
2084 1989 1668 963 890 812 858 957 1118 1376 1508 1575 1521 1483 1446 1477 1470 1439 1401 1551 1596 1620 1751 1682 1072 690 492 282 125 47 0 1 23 216 61 273 366 348 128 71 28 40 65
2135 2092 1713 1141 911 839 878 1042 1221 1372 1466 1571 1589 1531 1474 1488 1472 1395 1334 1390 1470 1668 1868 1628 788 285 180 122 57 18 2 89 325 241 151 338 234 319 232 102 77 51 96
2565 2582 1850 1364 1030 911 886 959 1173 1379 1516 1599 1584 1531 1528 1496 1415 1343 1247 1327 1468 1684 1662 1323 663 252 149 159 164 74 57 96 443 305 517 256 192 285 166 134 210 168 113
1818 3051 2686 1869 1347 1084 956 914 1007 1239 1460 1579 1557 1548 1569 1458 1411 1320 1263 1305 1477 1585 1485 1039 585 397 283 237 179 155 144 224 303 161 296 94 150 290 442 356 185 114 53
2091 2311 2980 2378 1834 1527 1228 1020 965 1051 1282 1535 1604 1597 1539 1472 1389 1278 1268 1316 1431 1435 1278 854 547 427 361 298 247 209 137 118 235 75 276 16 49 396 541 284 149 54 26
2044 2385 2645 2753 2425 2293 2027 1357 1090 1075 1093 1325 1544 1569 1496 1566 1474 1380 1213 1318 1338 1332 1079 616 459 383 328 268 192 115 56 77 172 152 192 33 137 516 331 221 139 58 8
1219 2170 2545 2798 2785 2638 2399 2234 1446 1379 1257 1295 1543 1610 1645 1626 1715 1467 1322 1207 1232 1120 847 534 431 301 197 214 66 36 13 255 16 265 56 46 53 369 358 145 73 12 2
0 1431 2157 2477 2708 2675 2399 2399 2168 2023 1736 1729 1689 1922 1689 1777 1915 1344 1340 1153 1189 965 762 486 392 280 218 382 254 45 23 276 119 284 40 35 98 553 408 89 49 21 0
0 0 1793 2133 2557 2416 2057 1736 2309 1988 2015 1995 1905 1970 2067 1850 1796 1649 1702 1438 1351 1113 914 710 685 473 461 311 663 200 86 135 252 93 40 38 242 436 148 40 11 79 2
0 0 72 1754 2268 2277 1807 1941 1785 1733 1920 2022 2067 2168 2378 1821 2094 2083 1704 1750 1378 1184 912 936 814 685 564 677 737 290 267 204 314 428 39 45 152 117 71 67 16 45 47
0 0 0 183 1692 2024 2011 1533 1988 1852 1635 2146 1887 2173 2270 2479 1679 2394 1664 2035 1294 1033 1015 1002 950 977 808 663 702 406 329 193 537 520 187 32 28 53 61 67 49 93 112
0 0 0 0 0 1551 1912 1953 1383 1972 1666 1830 2123 2313 2617 2239 2523 2391 2304 2212 1778 1149 1278 973 1318 1166 978 846 389 573 363 356 232 329 193 71 23 0 1 20 14 123 140
0 0 0 0 0 0 58 1600 1687 1492 1822 1805 1937 2012 2417 2646 2726 2475 2159 2134 2326 1545 1193 1217 1252 1289 1163 911 655 497 415 276 347 282 266 84 52 3 0 0 11 67 121
0 0 0 0 0 0 0 0 210 1504 1483 1909 1982 2148 2243 2864 2516 2352 2667 2254 2130 2067 1414 1119 1105 1242 1254 1137 811 710 526 328 436 269 220 107 110 50 10 0 8 56 42
0 0 0 0 0 0 0 0 0 405 1284 1402 1588 2166 2184 2749 2667 2080 2530 2635 1931 2321 1833 1271 1108 1314 1357 1168 1003 726 528 445 406 248 267 145 130 57 22 2 0 9 24
0 0 0 0 0 0 0 0 0 0 365 1678 1971 1808 2300 2335 2797 2430 2026 2612 2171 2241 2067 1435 1248 1269 1336 1362 934 617 624 591 388 323 321 188 67 43 50 18 0 0 6
0 0 0 0 0 0 0 0 0 0 0 135 1410 1929 1776 2282 2300 2596 2461 2202 2154 2213 2111 1891 1288 1366 1417 1415 1077 814 401 472 446 308 290 219 99 14 68 59 0 0 0
0 0 0 0 0 0 0 0 0 0 0 29 0 1219 2047 2044 2140 1910 2428 2209 2046 2071 2051 2101 1599 1450 1399 1396 1067 762 460 367 475 373 267 215 199 136 37 68 57 8 1
0 0 0 0 0 0 0 0 2 2 2 2 0 320 440 2255 2222 2326 2059 2334 1982 1955 2095 1995 1826 1464 1410 1328 1040 826 409 334 223 189 329 352 280 228 164 106 131 123 104
0 0 1 0 0 0 0 0 1 3 2 2 0 0 399 1270 1754 2322 1986 2112 2303 2169 1876 1892 1619 1416 1277 1003 748 493 531 372 369 201 197 288 338 230 214 185 32 21 144
0 0 0 1 0 0 0 0 0 2 2 3 2 0 308 875 1796 1847 1773 1961 2094 2184 1787 1558 1300 1310 1005 692 517 310 336 342 203 383 191 217 237 171 138 130 110 69 119
CIN
-211 -465 -498 -475 -433 -407 -353 -273 -191 -151 -134 -128 -150 -132 -111 -105 -100 -110 -81 -48 -26 -5 -10 -23 -35 -28 -23 -31 -44 -60 -62 -64 -73 -65 -50 -23 -34 -87 -72 -10 -43 -27 -47
-258 -450 -500 -465 -457 -429 -358 -292 -204 -146 -120 -116 -129 -115 -96 -93 -88 -93 -67 -42 -35 -4 -11 -15 -20 -10 -22 -39 -63 -82 -77 -76 -98 -134 -69 -32 -30 -61 -33 -17 -22 -41 -29
-256 -433 -453 -462 -459 -433 -380 -302 -205 -135 -119 -110 -115 -109 -100 -89 -79 -77 -53 -47 -27 -19 -13 -26 -12 -18 -29 -49 -78 -93 -90 -114 -19 -23 -24 -53 -48 -10 -27 -31 -16 -23 -13
-192 -351 -378 -491 -471 -436 -400 -325 -208 -152 -116 -97 -100 -101 -92 -87 -75 -65 -42 -36 -29 -30 -18 -17 -3 -24 -50 -62 -75 -95 -105 -116 -55 -0 -14 -12 -37 -52 -5 -19 -24 -27 -6
-126 -253 -303 -462 -477 -444 -394 -333 -245 -142 -125 -96 -83 -87 -81 -79 -73 -62 -48 -22 -22 -15 -14 -7 -9 -49 -88 -84 -78 -106 -157 -87 -68 -55 -56 -7 -45 -20 -14 -11 -31 -1 -10
-75 -162 -280 -409 -439 -407 -385 -321 -269 -178 -133 -90 -83 -74 -72 -65 -62 -56 -56 -30 -22 -12 -4 -9 -44 -86 -104 -142 -208 -242 -6 -4 -64 -59 -102 -20 -23 -7 -18 -28 -25 -21 -10
-80 -215 -296 -347 -390 -378 -344 -299 -244 -178 -148 -106 -76 -68 -68 -68 -64 -61 -59 -46 -32 -11 -1 -11 -69 -175 -208 -233 -273 -283 -66 -145 -42 -51 -30 -32 -43 -25 -41 -51 -49 -38 -8
-52 -159 -279 -359 -366 -364 -334 -300 -243 -177 -130 -103 -76 -70 -65 -64 -69 -70 -75 -59 -37 -18 -15 -36 -87 -166 -207 -186 -168 -193 -185 -143 -14 -13 -11 -54 -57 -36 -47 -46 -26 -16 -24
-82 -82 -185 -287 -347 -359 -340 -317 -273 -211 -147 -111 -95 -71 -55 -60 -58 -62 -67 -61 -41 -31 -32 -66 -106 -114 -121 -124 -133 -121 -111 -94 -39 -51 -21 -98 -54 -32 -14 -6 -23 -19 -38
-71 -70 -92 -192 -259 -286 -310 -311 -297 -251 -180 -119 -96 -73 -69 -63 -52 -55 -51 -47 -39 -42 -51 -84 -116 -117 -107 -106 -95 -87 -103 -93 -60 -96 -43 -76 -67 -28 -1 -4 -12 -26 -34
-76 -53 -45 -94 -136 -148 -179 -275 -305 -275 -239 -174 -117 -93 -84 -51 -47 -50 -54 -36 -33 -35 -58 -107 -125 -121 -120 -124 -120 -114 -117 -62 -50 -53 -39 -77 -42 -9 -9 -7 -16 -20 -24
-35 -60 -71 -29 -61 -75 -90 -147 -242 -242 -233 -197 -124 -109 -76 -50 -20 -33 -45 -60 -56 -57 -68 -98 -110 -126 -138 -119 -148 -153 -135 -44 -15 -40 -77 -79 -62 -4 -1 -14 -18 -31 -24
-0 -30 -57 -45 -16 -45 -49 -81 -121 -138 -165 -142 -106 -54 -82 -40 -4 -32 -45 -72 -65 -80 -99 -134 -129 -125 -106 -60 -65 -126 -81 -31 -19 -41 -70 -106 -34 -1 -0 -28 -20 -20 -0
-0 -0 -20 -28 -13 -33 -46 -86 -65 -113 -119 -112 -102 -64 -45 -48 -28 -35 -32 -54 -63 -81 -71 -84 -82 -97 -68 -56 -15 -39 -44 -22 -49 -101 -94 -97 -33 -17 -44 -61 -85 -14 -8
-0 -0 -24 -25 -28 -40 -59 -32 -75 -96 -76 -91 -72 -46 -20 -65 -25 -22 -28 -36 -74 -71 -81 -70 -67 -76 -53 -21 -9 -15 -6 -18 -11 -53 -109 -101 -44 -64 -59 -55 -66 -46 -0
-0 -0 -0 -71 -26 -42 -41 -57 -25 -48 -64 -33 -72 -59 -45 -20 -68 -7 -27 -5 -74 -74 -88 -57 -55 -60 -50 -31 -10 -8 -5 -9 -10 -16 -55 -96 -70 -62 -52 -44 -50 -11 -0
-0 -0 -0 -0 -0 -11 -35 -38 -53 -32 -50 -41 -38 -14 -19 -26 -14 -20 -8 -4 -18 -62 -23 -45 -11 -9 -26 -37 -50 -23 -19 -13 -7 -6 -47 -69 -103 -0 -3 -44 -49 -20 -0
-0 -0 -0 -0 -0 -0 -169 -3 -22 -17 -22 -27 -34 -33 -8 -28 -8 -14 -20 -18 -3 -28 -49 -31 -16 -9 -4 -17 -33 -37 -34 -26 -20 -16 -31 -51 -69 -18 -0 -0 -47 -29 -1
-0 -0 -0 -0 -0 -0 -0 -0 -59 -3 -6 -2 -8 -10 -11 -14 -36 -23 -1 -19 -10 -3 -23 -56 -55 -21 -12 -8 -15 -28 -34 -27 -14 -33 -39 -50 -51 -67 -37 -0 -56 -31 -17
-0 -0 -0 -0 -0 -0 -0 -0 -0 -21 -3 -9 -4 -3 -14 -6 -54 -55 -19 -6 -35 -5 -7 -66 -74 -36 -10 -22 -6 -15 -40 -31 -29 -37 -39 -52 -34 -63 -78 -11 -0 -60 -52
-0 -0 -0 -0 -0 -0 -0 -0 -0 -0 -23 -4 -1 -3 -4 -5 -15 -71 -65 -11 -30 -5 -6 -53 -83 -40 -12 -18 -39 -15 -19 -29 -31 -36 -36 -36 -60 -75 -65 -83 -0 -0 -110
-0 -0 -0 -0 -0 -0 -0 -0 -0 -0 -0 -6 -7 -9 -8 -5 -6 -14 -48 -37 -16 -5 -4 -15 -48 -26 -8 -8 -51 -28 -10 -8 -22 -32 -46 -47 -46 -56 -69 -74 -0 -0 -0
-0 -0 -0 -0 -0 -0 -0 -0 -0 -0 -17 -99 -0 -9 -9 -5 -4 -12 -5 -28 -20 -3 -5 -9 -23 -8 -10 -10 -24 -43 -17 -16 -11 -17 -38 -53 -31 -28 -31 -47 -66 -24 -7
-0 -0 -0 -0 -0 -0 -0 -0 -0 -0 -0 -0 -0 -89 -23 -6 -9 -4 -9 -5 -26 -17 -1 -2 -14 -18 -7 -5 -29 -25 -55 -67 -30 -10 -12 -25 -20 -27 -22 -11 -22 -22 -12
-0 -0 -0 -0 -0 -0 -0 -0 -0 -0 -0 -0 -0 -0 -88 -5 -6 -4 -3 -6 -0 -0 -5 -2 -7 -2 -10 -35 -33 -6 -33 -46 -46 -48 -9 -19 -11 -31 -36 -23 -32 -33 -12
-0 -0 -0 -0 -0 -0 -0 -0 -0 -0 -0 -0 -0 -0 -139 -20 -8 -4 -5 -11 -5 -1 -7 -4 -14 -3 -55 -65 -106 -39 -11 -34 -74 -5 -7 -6 -23 -58 -68 -57 -34 -16 -9
Wind_Speed
12 13 14 15 15 14 13 13 12 12 12 12 12 12 13 14 16 17 18 18 19 19 19 19 19 19 18 18 19 19 19 18 18 18 17 18 17 17 16 15 16 15 12
11 13 16 16 15 14 13 13 12 12 12 12 11 12 13 14 15 16 16 17 17 18 18 18 18 18 19 18 18 18 18 18 18 18 18 18 18 17 16 15 16 15 13
13 13 13 14 15 15 13 13 12 11 11 11 11 11 12 13 14 14 15 16 17 17 17 17 18 18 17 17 17 17 17 17 17 17 17 19 18 18 17 17 18 17 12
12 11 11 13 14 15 14 13 12 11 11 10 10 10 11 12 12 13 14 15 15 16 16 16 16 16 16 16 16 16 16 15 16 16 17 17 18 18 18 16 17 15 8
11 11 10 11 12 13 14 13 12 11 10 9 8 9 10 10 11 11 12 13 13 14 15 15 15 15 15 15 15 15 15 15 17 18 18 12 18 17 18 18 19 17 10
10 9 10 9 10 11 12 12 12 11 10 8 7 7 8 8 9 10 10 11 12 12 13 14 15 15 15 15 15 14 13 15 15 17 17 15 18 16 17 17 16 15 10
12 9 8 8 7 8 9 10 11 11 10 8 7 7 7 7 8 8 9 10 11 12 12 13 14 14 14 13 13 13 12 13 13 16 16 16 16 16 17 17 16 15 11
11 8 7 5 5 6 7 8 9 9 9 9 8 6 6 6 6 7 7 8 9 11 11 12 12 13 13 13 13 12 11 12 13 11 14 16 16 16 14 14 13 12 10
15 9 8 6 2 2 3 5 6 7 7 7 7 7 7 6 6 6 6 7 8 9 10 11 12 12 12 13 12 12 11 13 16 18 15 18 15 13 13 13 12 11 10
13 12 9 7 3 3 3 3 4 5 5 5 5 5 5 5 5 5 5 6 7 8 9 10 10 11 12 12 12 12 12 13 14 16 13 16 13 12 12 12 11 12 10
14 13 13 8 6 5 5 4 3 3 4 3 3 3 4 4 4 4 4 4 6 7 8 8 9 10 11 12 12 12 12 13 13 14 13 14 13 11 11 10 10 11 8
16 12 12 11 9 7 7 6 5 4 4 4 3 2 3 3 3 2 2 3 4 5 7 8 8 9 10 11 11 11 11 11 12 13 13 13 13 11 10 10 9 11 8
26 17 13 12 13 12 12 10 9 8 7 5 4 3 2 2 2 1 4 3 4 4 5 6 7 8 7 8 9 9 9 9 13 14 12 13 12 10 10 8 6 6 9
29 29 16 14 13 15 19 17 13 10 9 8 7 5 4 4 3 2 2 2 3 2 3 4 5 5 5 4 9 7 7 9 11 13 10 11 11 10 8 6 5 4 5
28 28 28 13 14 15 17 22 17 17 13 11 10 9 7 6 6 4 3 3 3 2 1 2 3 3 3 3 7 4 6 11 11 12 9 10 9 10 8 6 5 4 9
31 32 31 28 13 15 17 20 22 20 19 14 13 11 10 9 8 7 7 6 5 4 3 3 3 2 2 3 8 5 7 8 9 11 10 7 7 8 7 6 6 2 12
32 33 32 31 32 24 17 19 23 22 21 21 19 15 13 13 11 10 8 9 8 6 6 5 6 6 6 4 4 5 6 10 9 10 9 8 5 5 6 8 7 6 10
34 34 36 35 34 33 29 26 22 25 21 22 22 22 18 15 14 13 13 11 11 9 9 9 9 10 10 8 8 5 5 7 8 7 8 8 4 3 3 8 7 5 5
36 37 38 39 37 38 35 30 35 30 24 23 24 23 22 19 18 18 16 15 15 14 13 13 12 12 12 12 11 9 6 7 9 6 7 6 3 3 3 5 7 5 4
37 38 39 39 40 41 39 39 35 30 19 24 32 28 25 24 22 21 22 21 19 20 17 16 15 15 15 15 15 14 11 9 7 8 9 8 7 5 4 1 4 4 7
37 38 39 40 40 40 39 39 41 41 36 32 33 38 33 28 26 25 24 25 23 24 22 21 18 19 18 15 19 24 19 12 10 9 9 11 9 8 4 4 4 4 6
39 40 40 41 41 40 40 42 42 42 42 39 33 33 36 36 31 29 29 29 29 30 27 26 23 23 23 20 21 22 24 22 20 14 13 13 14 12 9 6 6 6 7
40 42 42 42 42 40 42 43 44 44 42 41 40 37 33 33 34 32 33 32 31 30 31 29 29 26 27 26 23 24 25 27 22 21 18 17 17 17 14 10 9 9 7
41 41 42 43 44 41 42 42 43 43 46 47 46 43 40 35 35 36 32 35 35 34 34 33 31 31 30 30 28 25 21 20 25 28 23 21 20 18 16 16 13 10 9
43 43 43 42 43 43 43 42 42 45 47 49 49 50 48 39 38 38 36 33 34 34 34 34 34 32 32 32 30 32 29 22 24 29 29 22 20 20 18 18 15 14 10
44 45 46 46 45 45 44 44 43 45 47 50 51 51 50 45 39 39 40 37 36 37 38 38 35 34 33 31 28 27 38 31 30 29 28 26 24 23 23 21 15 17 14
Wind_Direction
39 72 84 81 69 51 34 28 32 42 46 46 50 42 40 41 45 50 55 58 58 63 66 68 68 66 64 61 58 57 55 53 53 49 39 24 18 17 17 8 14 20 6
63 85 100 92 82 64 44 38 39 46 46 51 53 50 49 52 52 54 60 57 58 63 63 66 64 61 58 60 60 56 55 56 58 39 27 17 20 29 22 17 27 21 21
57 73 88 89 91 76 54 45 43 49 53 55 58 60 58 57 55 55 62 57 58 59 61 60 58 56 59 60 58 57 63 64 52 39 44 36 35 25 23 33 44 38 34
45 65 85 91 88 87 69 52 51 53 54 57 58 65 65 64 58 58 60 60 57 55 55 54 54 54 56 57 60 64 67 65 54 51 32 39 41 35 31 38 40 36 22
39 51 77 89 87 87 83 55 48 52 57 59 58 63 62 61 57 58 57 58 52 52 50 48 51 51 53 57 61 64 67 66 48 35 40 96 55 50 47 48 45 49 36
33 55 82 87 82 87 85 73 60 44 44 50 51 50 53 51 51 53 51 49 45 48 48 46 48 48 52 57 58 60 68 58 58 42 76 51 53 62 53 49 51 46 0
11 32 61 78 84 88 81 74 68 64 44 44 47 46 51 50 50 50 45 42 39 41 43 44 44 47 50 51 53 57 65 63 70 59 84 45 58 68 64 54 49 52 33
8 17 21 39 76 86 83 72 61 59 63 68 67 49 42 40 45 48 43 37 34 36 42 41 42 45 46 45 49 53 64 65 64 58 53 52 69 71 55 47 45 46 31
328 359 360 0 13 54 65 55 53 53 58 70 74 75 62 50 33 27 30 31 26 28 33 35 38 41 43 42 46 49 59 50 43 36 39 58 67 56 48 53 53 44 34
337 322 331 340 320 324 340 3 20 26 39 62 66 63 57 54 46 42 36 22 22 27 29 31 35 38 42 43 46 48 51 48 53 47 42 39 66 59 57 58 55 54 43
333 327 312 311 307 295 303 307 330 347 358 23 36 40 34 30 37 46 47 43 25 18 21 27 33 36 40 41 46 46 41 48 48 52 57 47 42 54 63 63 55 63 29
331 318 313 298 289 286 289 289 286 300 306 314 330 351 356 9 24 54 51 41 23 13 8 14 22 32 37 35 44 45 44 52 50 56 52 47 54 69 74 71 63 75 37
319 325 307 298 289 286 288 288 288 284 284 282 275 293 298 330 345 45 351 358 357 1 1 9 10 15 29 42 46 49 49 42 23 37 51 57 51 71 70 68 45 49 67
315 309 308 296 288 285 285 285 288 280 273 272 263 252 268 274 284 276 328 336 330 342 348 356 3 11 21 31 15 43 46 24 22 36 48 53 66 74 74 62 21 27 48
330 327 323 297 290 287 282 282 277 278 271 268 265 254 253 252 270 252 277 282 305 301 277 308 342 6 9 1 4 33 26 2 9 23 53 57 68 83 65 80 87 67 124
331 328 328 332 297 286 286 275 278 275 275 267 263 256 236 253 242 270 260 277 272 281 252 276 281 268 328 324 339 353 355 352 3 7 27 55 65 72 64 102 105 63 141
329 324 320 323 327 298 283 281 270 269 268 271 272 265 249 246 258 255 262 258 267 258 266 266 267 290 287 291 303 317 328 330 335 346 6 18 45 65 90 132 127 129 141
329 324 321 317 319 315 303 286 273 262 259 266 266 267 259 245 256 260 252 250 265 255 255 267 279 285 291 285 298 296 299 310 319 325 341 358 17 21 98 150 154 148 149
330 323 316 312 312 311 310 305 295 265 261 270 266 263 263 252 244 251 260 260 262 265 259 260 268 272 276 283 285 284 279 290 306 301 309 326 344 5 27 162 166 202 196
330 325 320 315 310 307 305 299 302 298 286 274 271 269 259 259 250 248 259 264 256 269 262 258 260 265 274 276 287 286 276 281 279 287 289 305 307 326 331 299 194 205 222
331 327 322 317 315 311 306 303 298 294 293 281 274 270 268 260 254 251 252 263 260 262 260 258 260 266 269 268 280 290 292 288 282 276 283 290 287 292 298 283 272 231 231
331 327 324 320 315 311 307 300 297 292 287 287 277 271 267 268 260 257 256 258 262 267 263 263 258 266 270 267 271 283 286 291 291 284 280 279 282 284 275 273 263 247 261
332 329 326 323 318 314 309 303 298 293 291 285 282 279 267 264 264 258 261 260 262 261 264 262 261 258 263 266 262 275 282 284 292 286 276 275 275 276 275 267 269 263 249
331 331 329 327 322 318 313 307 300 293 287 285 283 284 273 271 265 265 260 264 264 265 265 262 260 260 261 260 264 256 271 288 291 292 282 273 273 271 267 274 269 260 246
333 333 333 331 327 321 316 309 303 295 290 287 283 280 278 272 267 265 263 261 264 264 264 263 261 258 257 262 263 266 264 270 283 288 285 278 276 271 269 269 267 262 248
331 331 331 329 327 322 316 310 304 298 293 288 283 279 278 276 268 263 266 264 264 265 266 268 264 260 261 263 265 271 282 277 277 275 279 281 272 273 269 267 260 266 260